Station Historical Data
Daily Summary for November 18, 2017 Units:  English    Metric   Both
« Previous Day
Next Day »
Daily Weekly Monthly Yearly Custom
  High: Low: Average:
Temperature: 49.2 °F 32.3 °F 44.3 °F
Dew Point: 46.1 °F 26.0 °F 38.5 °F
Humidity: 93% 53% 80%
Wind Speed: 14.0mph 0.0mph 2.2mph
Wind Gust: 19.0mph - -
Wind- - SSW
Pressure: 29.89 in 29.06 in -
Precipitation: 0.00 in    
Historical Graphs
 
 
Tabular Data for November 18, 2017
Time Temperature Dew Point Pressure Wind Wind Speed Wind Gust Humidity Rainfall Rate (Hourly)
00:04 33.1 °F 27.0 °F 29.89 in Calm     78% 0.00 in
00:09 33.3 °F 27.2 °F 29.89 in Calm     78% 0.00 in
00:14 33.4 °F 27.3 °F 29.89 in Calm     78% 0.00 in
00:19 33.4 °F 27.3 °F 29.88 in SE 1.0 mph 1.0 mph 78% 0.00 in
00:24 33.5 °F 27.1 °F 29.87 in Calm   2.0 mph 77% 0.00 in
00:29 33.4 °F 27.0 °F 29.86 in Calm   2.0 mph 77% 0.00 in
00:34 33.4 °F 27.0 °F 29.86 in ESE 1.0 mph 3.0 mph 77% 0.00 in
00:39 33.4 °F 27.0 °F 29.86 in Calm   3.0 mph 77% 0.00 in
00:44 33.3 °F 26.9 °F 29.86 in Calm   2.0 mph 77% 0.00 in
00:49 33.1 °F 26.7 °F 29.85 in Calm     77% 0.00 in
00:54 32.9 °F 26.5 °F 29.85 in Calm     77% 0.00 in
00:59 32.8 °F 26.4 °F 29.84 in Calm     77% 0.00 in
01:04 32.6 °F 26.2 °F 29.83 in Calm     77% 0.00 in
01:09 32.6 °F 26.2 °F 29.83 in Calm     77% 0.00 in
01:14 32.5 °F 26.1 °F 29.82 in Calm     77% 0.00 in
01:19 32.4 °F 26.3 °F 29.82 in Calm     78% 0.00 in
01:24 32.3 °F 26.2 °F 29.82 in Calm     78% 0.00 in
01:29 32.3 °F 26.2 °F 29.81 in Calm     78% 0.00 in
01:34 32.4 °F 26.3 °F 29.81 in Calm     78% 0.00 in
01:39 32.5 °F 26.4 °F 29.80 in Calm     78% 0.00 in
01:44 32.7 °F 26.3 °F 29.80 in Calm     77% 0.00 in
01:49 32.7 °F 26.6 °F 29.80 in Calm     78% 0.00 in
01:54 33.0 °F 26.6 °F 29.80 in Calm     77% 0.00 in
01:59 33.4 °F 26.6 °F 29.79 in Calm     76% 0.00 in
02:04 33.5 °F 26.4 °F 29.79 in Calm     75% 0.00 in
02:09 33.6 °F 26.5 °F 29.79 in Calm     75% 0.00 in
02:14 33.8 °F 26.4 °F 29.79 in Calm     74% 0.00 in
02:19 33.9 °F 26.5 °F 29.79 in Calm     74% 0.00 in
02:24 33.9 °F 26.5 °F 29.79 in Calm     74% 0.00 in
02:29 34.0 °F 26.6 °F 29.79 in Calm     74% 0.00 in
02:34 34.0 °F 26.6 °F 29.78 in Calm     74% 0.00 in
02:39 34.3 °F 26.9 °F 29.78 in Calm     74% 0.00 in
02:44 34.4 °F 26.6 °F 29.77 in Calm   4.0 mph 73% 0.00 in
02:49 34.6 °F 26.8 °F 29.77 in SE 1.0 mph 4.0 mph 73% 0.00 in
02:54 34.6 °F 26.8 °F 29.77 in SE 1.0 mph 3.0 mph 73% 0.00 in
02:59 34.8 °F 26.7 °F 29.77 in SE 1.0 mph 3.0 mph 72% 0.00 in
03:04 35.1 °F 27.0 °F 29.76 in SE 1.0 mph 3.0 mph 72% 0.00 in
03:09 35.5 °F 26.7 °F 29.76 in Calm   3.0 mph 70% 0.00 in
03:14 36.0 °F 26.8 °F 29.75 in Calm     69% 0.00 in
03:19 36.4 °F 26.5 °F 29.74 in Calm     67% 0.00 in
03:24 36.8 °F 26.1 °F 29.74 in Calm     65% 0.00 in
03:29 37.1 °F 26.0 °F 29.74 in Calm     64% 0.00 in
03:34 37.2 °F 26.1 °F 29.74 in Calm     64% 0.00 in
03:39 37.2 °F 26.1 °F 29.74 in Calm     64% 0.00 in
03:44 37.1 °F 26.4 °F 29.73 in Calm     65% 0.00 in
03:49 37.3 °F 26.2 °F 29.72 in Calm     64% 0.00 in
03:54 37.5 °F 26.4 °F 29.72 in Calm     64% 0.00 in
03:59 37.4 °F 26.3 °F 29.72 in Calm     64% 0.00 in
04:04 37.2 °F 26.5 °F 29.72 in Calm     65% 0.00 in
04:09 37.0 °F 26.3 °F 29.72 in Calm     65% 0.00 in
04:14 37.0 °F 26.7 °F 29.72 in Calm     66% 0.00 in
04:19 36.9 °F 27.0 °F 29.72 in Calm     67% 0.00 in
04:24 36.9 °F 27.0 °F 29.72 in Calm     67% 0.00 in
04:29 37.0 °F 27.1 °F 29.72 in Calm     67% 0.00 in
04:34 37.1 °F 27.5 °F 29.72 in Calm     68% 0.00 in
04:39 37.0 °F 27.8 °F 29.71 in Calm     69% 0.00 in
04:44 37.0 °F 27.4 °F 29.72 in Calm     68% 0.00 in
04:49 37.2 °F 27.6 °F 29.71 in Calm     68% 0.00 in
04:54 37.5 °F 27.9 °F 29.71 in Calm     68% 0.00 in
04:59 37.6 °F 28.0 °F 29.70 in Calm     68% 0.00 in
05:04 37.9 °F 27.9 °F 29.70 in Calm     67% 0.00 in
05:09 38.2 °F 27.8 °F 29.70 in Calm     66% 0.00 in
05:14 38.4 °F 28.4 °F 29.70 in Calm     67% 0.00 in
05:19 38.8 °F 28.8 °F 29.70 in Calm   4.0 mph 67% 0.00 in
05:24 39.9 °F 27.9 °F 29.69 in SSW 1.0 mph 5.0 mph 62% 0.00 in
05:29 41.1 °F 27.9 °F 29.69 in SSW 1.0 mph 5.0 mph 59% 0.00 in
05:34 42.0 °F 28.3 °F 29.69 in Calm   7.0 mph 58% 0.00 in
05:39 43.4 °F 28.7 °F 29.68 in SSW 2.0 mph 7.0 mph 56% 0.00 in
05:44 44.7 °F 29.5 °F 29.68 in SSW 3.0 mph 10.0 mph 55% 0.00 in
05:49 45.3 °F 29.6 °F 29.67 in South 2.0 mph 9.0 mph 54% 0.00 in
05:54 45.6 °F 29.9 °F 29.66 in SW 4.0 mph 9.0 mph 54% 0.00 in
05:59 46.0 °F 29.8 °F 29.65 in SSW 5.0 mph 12.0 mph 53% 0.00 in
06:04 46.2 °F 30.5 °F 29.66 in SSW 4.0 mph 10.0 mph 54% 0.00 in
06:09 46.2 °F 31.4 °F 29.65 in SSW 2.0 mph 9.0 mph 56% 0.00 in
06:14 46.1 °F 31.7 °F 29.65 in SSW 4.0 mph 9.0 mph 57% 0.00 in
06:19 45.9 °F 31.9 °F 29.64 in SSW 4.0 mph 10.0 mph 58% 0.00 in
06:24 45.6 °F 32.5 °F 29.63 in South 3.0 mph 10.0 mph 60% 0.00 in
06:29 45.1 °F 32.8 °F 29.63 in Calm   5.0 mph 62% 0.00 in
06:34 44.8 °F 33.4 °F 29.63 in SW 1.0 mph 5.0 mph 64% 0.00 in
06:39 44.5 °F 33.5 °F 29.63 in SW 2.0 mph 6.0 mph 65% 0.00 in
06:44 44.4 °F 33.4 °F 29.63 in Calm   3.0 mph 65% 0.00 in
06:49 44.4 °F 33.7 °F 29.64 in WSW 1.0 mph 5.0 mph 66% 0.00 in
06:54 44.5 °F 33.5 °F 29.65 in WSW 3.0 mph 8.0 mph 65% 0.00 in
06:59 44.7 °F 34.0 °F 29.65 in SW 2.0 mph 10.0 mph 66% 0.00 in
07:04 44.9 °F 35.0 °F 29.64 in WSW 9.0 mph 11.0 mph 68% 0.00 in
07:09 44.9 °F 35.0 °F 29.63 in SSW 6.0 mph 17.0 mph 68% 0.00 in
07:14 45.0 °F 35.4 °F 29.64 in SW 9.0 mph 18.0 mph 69% 0.00 in
07:19 45.0 °F 35.8 °F 29.64 in SSW 8.0 mph 17.0 mph 70% 0.00 in
07:24 44.9 °F 36.1 °F 29.63 in SW 8.0 mph 18.0 mph 71% 0.00 in
07:29 44.8 °F 36.3 °F 29.62 in SSW 9.0 mph 18.0 mph 72% 0.00 in
07:34 44.6 °F 36.1 °F 29.60 in SSW 8.0 mph 18.0 mph 72% 0.00 in
07:39 44.5 °F 36.0 °F 29.59 in South 7.0 mph 16.0 mph 72% 0.00 in
07:44 44.5 °F 35.7 °F 29.59 in SSW 7.0 mph 13.0 mph 71% 0.00 in
07:49 44.5 °F 35.7 °F 29.60 in South 7.0 mph 14.0 mph 71% 0.00 in
07:54 44.6 °F 35.8 °F 29.60 in SSW 7.0 mph 14.0 mph 71% 0.00 in
07:59 44.5 °F 35.7 °F 29.60 in SSW 5.0 mph 12.0 mph 71% 0.00 in
08:04 44.4 °F 35.9 °F 29.60 in South 3.0 mph 9.0 mph 72% 0.00 in
08:09 44.5 °F 36.4 °F 29.59 in SSW 6.0 mph 10.0 mph 73% 0.00 in
08:14 44.7 °F 36.6 °F 29.59 in South 2.0 mph 12.0 mph 73% 0.00 in
08:19 44.9 °F 37.1 °F 29.59 in SW 4.0 mph 11.0 mph 74% 0.00 in
08:24 45.4 °F 37.9 °F 29.59 in South 9.0 mph 17.0 mph 75% 0.00 in
08:29 45.7 °F 38.2 °F 29.59 in SSW 6.0 mph 17.0 mph 75% 0.00 in
08:34 45.8 °F 38.7 °F 29.59 in SSW 6.0 mph 15.0 mph 76% 0.00 in
08:39 46.0 °F 38.9 °F 29.58 in South 8.0 mph 13.0 mph 76% 0.00 in
08:44 46.3 °F 39.1 °F 29.58 in SSW 7.0 mph 16.0 mph 76% 0.00 in
08:49 46.5 °F 39.3 °F 29.58 in South 7.0 mph 13.0 mph 76% 0.00 in
08:54 46.5 °F 39.7 °F 29.59 in SSW 6.0 mph 10.0 mph 77% 0.00 in
08:59 46.6 °F 39.8 °F 29.58 in SSW 6.0 mph 14.0 mph 77% 0.00 in
09:04 46.7 °F 39.9 °F 29.57 in SSW 6.0 mph 16.0 mph 77% 0.00 in
09:09 46.7 °F 39.9 °F 29.58 in SSW 6.0 mph 16.0 mph 77% 0.00 in
09:14 46.8 °F 40.0 °F 29.59 in SSW 6.0 mph 19.0 mph 77% 0.00 in
09:19 46.8 °F 40.0 °F 29.58 in SSW 4.0 mph 14.0 mph 77% 0.00 in
09:24 46.8 °F 40.3 °F 29.59 in SW 6.0 mph 12.0 mph 78% 0.00 in
09:29 46.9 °F 40.4 °F 29.59 in SSW 6.0 mph 12.0 mph 78% 0.00 in
09:34 46.9 °F 40.4 °F 29.58 in West 7.0 mph 13.0 mph 78% 0.00 in
09:39 46.9 °F 40.4 °F 29.58 in South 11.0 mph 15.0 mph 78% 0.00 in
09:44 46.9 °F 40.4 °F 29.58 in South 4.0 mph 12.0 mph 78% 0.00 in
09:49 46.9 °F 40.4 °F 29.58 in SSW 3.0 mph 10.0 mph 78% 0.00 in
09:54 46.9 °F 40.4 °F 29.58 in SW 8.0 mph 9.0 mph 78% 0.00 in
09:59 46.9 °F 40.4 °F 29.58 in SW 9.0 mph 12.0 mph 78% 0.00 in
10:04 46.9 °F 40.4 °F 29.57 in SW 6.0 mph 12.0 mph 78% 0.00 in
10:09 47.0 °F 40.5 °F 29.57 in SW 6.0 mph 13.0 mph 78% 0.00 in
10:14 47.0 °F 40.5 °F 29.57 in SW 6.0 mph 13.0 mph 78% 0.00 in
10:19 47.0 °F 40.5 °F 29.56 in SSW 6.0 mph 14.0 mph 78% 0.00 in
10:24 47.0 °F 40.5 °F 29.56 in SSW 6.0 mph 14.0 mph 78% 0.00 in
10:29 47.0 °F 40.8 °F 29.56 in SW 4.0 mph 14.0 mph 79% 0.00 in
10:34 47.0 °F 40.5 °F 29.56 in South 3.0 mph 10.0 mph 78% 0.00 in
10:39 47.0 °F 40.8 °F 29.55 in SW 5.0 mph 10.0 mph 79% 0.00 in
10:44 47.1 °F 40.9 °F 29.55 in SW 4.0 mph 11.0 mph 79% 0.00 in
10:49 47.1 °F 40.9 °F 29.55 in SW 9.0 mph 11.0 mph 79% 0.00 in
10:59 47.1 °F 41.2 °F 29.53 in SW 3.0 mph 10.0 mph 80% 0.00 in
11:04 47.2 °F 41.3 °F 29.54 in SSW 7.0 mph 15.0 mph 80% 0.00 in
11:09 47.2 °F 41.3 °F 29.54 in SSW 14.0 mph 14.0 mph 80% 0.00 in
11:14 47.2 °F 41.7 °F 29.53 in SW 6.0 mph 14.0 mph 81% 0.00 in
11:19 47.2 °F 41.7 °F 29.53 in SSW 5.0 mph 14.0 mph 81% 0.00 in
11:24 47.1 °F 41.6 °F 29.53 in SSW 5.0 mph 12.0 mph 81% 0.00 in
11:29 47.1 °F 41.6 °F 29.52 in SSW 6.0 mph 12.0 mph 81% 0.00 in
11:34 47.1 °F 41.6 °F 29.52 in SSW 5.0 mph 12.0 mph 81% 0.00 in
11:39 47.1 °F 41.9 °F 29.52 in SSW 2.0 mph 11.0 mph 82% 0.00 in
11:44 47.1 °F 41.9 °F 29.52 in SSW 5.0 mph 10.0 mph 82% 0.00 in
11:49 47.2 °F 42.0 °F 29.51 in SSW 5.0 mph 11.0 mph 82% 0.00 in
11:54 47.2 °F 42.0 °F 29.51 in SSW 5.0 mph 11.0 mph 82% 0.00 in
11:59 47.4 °F 42.2 °F 29.50 in SSW 7.0 mph 9.0 mph 82% 0.00 in
12:04 47.4 °F 42.2 °F 29.50 in WSW 8.0 mph 10.0 mph 82% 0.00 in
12:09 47.3 °F 42.1 °F 29.50 in WSW 6.0 mph 11.0 mph 82% 0.00 in
12:14 47.3 °F 42.4 °F 29.50 in SSW 5.0 mph 14.0 mph 83% 0.00 in
12:19 47.2 °F 42.3 °F 29.50 in SSW 6.0 mph 14.0 mph 83% 0.00 in
12:24 47.2 °F 42.6 °F 29.49 in SSW 5.0 mph 12.0 mph 84% 0.00 in
12:29 47.1 °F 42.5 °F 29.49 in SSW 5.0 mph 12.0 mph 84% 0.00 in
12:34 47.0 °F 42.4 °F 29.49 in SSW 4.0 mph 11.0 mph 84% 0.00 in
12:39 47.0 °F 42.4 °F 29.49 in SSW 4.0 mph 11.0 mph 84% 0.00 in
12:44 47.1 °F 42.5 °F 29.48 in SSW 3.0 mph 8.0 mph 84% 0.00 in
12:49 47.3 °F 42.7 °F 29.48 in SSW 7.0 mph 12.0 mph 84% 0.00 in
12:54 47.4 °F 42.8 °F 29.48 in SW 5.0 mph 13.0 mph 84% 0.00 in
12:59 47.4 °F 42.5 °F 29.48 in SW 5.0 mph 13.0 mph 83% 0.00 in
13:04 47.5 °F 42.6 °F 29.47 in SSW 4.0 mph 11.0 mph 83% 0.00 in
13:09 47.5 °F 42.6 °F 29.47 in SSW 4.0 mph 10.0 mph 83% 0.00 in
13:14 47.6 °F 42.7 °F 29.46 in SW 5.0 mph 8.0 mph 83% 0.00 in
13:19 47.8 °F 42.9 °F 29.46 in WSW 7.0 mph 9.0 mph 83% 0.00 in
13:24 47.8 °F 42.9 °F 29.46 in SW 4.0 mph 10.0 mph 83% 0.00 in
13:29 47.8 °F 42.9 °F 29.45 in SSW 5.0 mph 14.0 mph 83% 0.00 in
13:34 47.9 °F 43.0 °F 29.45 in SSW 5.0 mph 14.0 mph 83% 0.00 in
13:39 47.9 °F 43.0 °F 29.44 in SSW 5.0 mph 11.0 mph 83% 0.00 in
13:44 48.0 °F 43.1 °F 29.43 in SW 6.0 mph 9.0 mph 83% 0.00 in
13:49 48.1 °F 43.2 °F 29.43 in Calm   6.0 mph 83% 0.00 in
13:54 48.2 °F 43.3 °F 29.43 in SSW 2.0 mph 7.0 mph 83% 0.00 in
13:59 48.3 °F 43.4 °F 29.42 in SSW 3.0 mph 9.0 mph 83% 0.00 in
14:04 48.4 °F 43.2 °F 29.42 in SSW 3.0 mph 9.0 mph 82% 0.00 in
14:09 48.5 °F 43.3 °F 29.42 in SSW 4.0 mph 10.0 mph 82% 0.00 in
14:14 48.6 °F 43.4 °F 29.41 in South 4.0 mph 9.0 mph 82% 0.00 in
14:19 48.7 °F 43.5 °F 29.41 in SSW 6.0 mph 7.0 mph 82% 0.00 in
14:24 48.7 °F 43.5 °F 29.41 in Calm   6.0 mph 82% 0.00 in
14:29 48.7 °F 43.5 °F 29.40 in South 2.0 mph 6.0 mph 82% 0.00 in
14:34 48.8 °F 43.5 °F 29.40 in SSW 3.0 mph 6.0 mph 82% 0.00 in
14:39 48.9 °F 43.3 °F 29.39 in SSW 3.0 mph 6.0 mph 81% 0.00 in
14:44 49.0 °F 43.4 °F 29.38 in South 3.0 mph 7.0 mph 81% 0.00 in
14:49 49.0 °F 43.4 °F 29.38 in South 4.0 mph 8.0 mph 81% 0.00 in
14:54 49.1 °F 43.5 °F 29.37 in South 1.0 mph 7.0 mph 81% 0.00 in
14:59 49.1 °F 43.8 °F 29.37 in SSW 3.0 mph 7.0 mph 82% 0.00 in
15:04 49.1 °F 43.8 °F 29.38 in SSW 4.0 mph 7.0 mph 82% 0.00 in
15:09 49.1 °F 43.8 °F 29.37 in South 4.0 mph 11.0 mph 82% 0.00 in
15:14 49.1 °F 43.8 °F 29.37 in South 4.0 mph 11.0 mph 82% 0.00 in
15:19 49.1 °F 43.8 °F 29.37 in South 4.0 mph 11.0 mph 82% 0.00 in
15:24 49.1 °F 43.8 °F 29.37 in SSW 4.0 mph 9.0 mph 82% 0.00 in
15:29 49.2 °F 43.9 °F 29.37 in SSW 6.0 mph 8.0 mph 82% 0.00 in
15:34 49.2 °F 43.9 °F 29.37 in SSW 2.0 mph 10.0 mph 82% 0.00 in
15:39 49.1 °F 43.8 °F 29.37 in South 4.0 mph 10.0 mph 82% 0.01 in
15:44 48.9 °F 44.0 °F 29.37 in South 3.0 mph 9.0 mph 83% 0.02 in
15:49 48.6 °F 44.0 °F 29.36 in South 3.0 mph 8.0 mph 84% 0.02 in
15:54 48.5 °F 44.2 °F 29.35 in SSE 1.0 mph 5.0 mph 85% 0.04 in
15:59 48.3 °F 44.3 °F 29.35 in South 1.0 mph 4.0 mph 86% 0.04 in
16:04 48.3 °F 44.3 °F 29.35 in SE 2.0 mph 6.0 mph 86% 0.05 in
16:09 48.2 °F 44.5 °F 29.34 in SSE 3.0 mph 7.0 mph 87% 0.06 in
16:14 48.2 °F 44.5 °F 29.34 in SSE 2.0 mph 7.0 mph 87% 0.06 in
16:19 48.1 °F 44.4 °F 29.33 in Calm   3.0 mph 87% 0.07 in
16:24 48.0 °F 44.6 °F 29.33 in Calm   4.0 mph 88% 0.08 in
16:29 47.9 °F 44.5 °F 29.33 in Calm   3.0 mph 88% 0.08 in
16:34 47.8 °F 44.4 °F 29.33 in Calm   4.0 mph 88% 0.08 in
16:39 47.8 °F 44.4 °F 29.33 in Calm   2.0 mph 88% 0.08 in
16:44 47.7 °F 44.6 °F 29.33 in Calm   3.0 mph 89% 0.08 in
16:49 47.6 °F 44.5 °F 29.33 in Calm     89% 0.08 in
16:54 47.6 °F 44.5 °F 29.33 in Calm     89% 0.08 in
16:59 47.6 °F 44.5 °F 29.32 in Calm     89% 0.09 in
17:04 47.5 °F 44.4 °F 29.32 in Calm     89% 0.09 in
17:09 47.5 °F 44.7 °F 29.33 in Calm     90% 0.09 in
17:14 47.5 °F 44.7 °F 29.32 in Calm     90% 0.11 in
17:19 47.6 °F 44.8 °F 29.32 in Calm     90% 0.11 in
17:24 47.5 °F 44.7 °F 29.32 in Calm     90% 0.12 in
17:29 47.4 °F 44.6 °F 29.31 in Calm     90% 0.13 in
17:34 47.4 °F 44.6 °F 29.30 in Calm     90% 0.14 in
17:39 47.3 °F 44.5 °F 29.30 in Calm     90% 0.15 in
17:44 47.3 °F 44.5 °F 29.29 in Calm     90% 0.14 in
17:49 47.3 °F 44.5 °F 29.29 in Calm     90% 0.15 in
17:54 47.3 °F 44.8 °F 29.28 in Calm     91% 0.13 in
17:59 47.2 °F 44.7 °F 29.28 in Calm     91% 0.13 in
18:04 47.2 °F 44.7 °F 29.27 in Calm     91% 0.12 in
18:09 47.1 °F 44.6 °F 29.27 in ESE 1.0 mph 4.0 mph 91% 0.11 in
18:14 47.1 °F 44.6 °F 29.27 in Calm   2.0 mph 91% 0.09 in
18:19 47.0 °F 44.5 °F 29.26 in East 1.0 mph 3.0 mph 91% 0.08 in
18:24 47.0 °F 44.5 °F 29.26 in Calm   3.0 mph 91% 0.07 in
18:29 47.0 °F 44.5 °F 29.26 in East 1.0 mph 5.0 mph 91% 0.07 in
18:34 47.1 °F 44.6 °F 29.25 in Calm   3.0 mph 91% 0.06 in
18:39 47.1 °F 44.6 °F 29.25 in Calm   3.0 mph 91% 0.05 in
18:44 47.0 °F 44.5 °F 29.25 in Calm   3.0 mph 91% 0.06 in
18:49 47.0 °F 44.5 °F 29.24 in Calm   3.0 mph 91% 0.06 in
18:54 47.0 °F 44.5 °F 29.23 in Calm   3.0 mph 91% 0.06 in
18:59 47.0 °F 44.5 °F 29.23 in East 1.0 mph 3.0 mph 91% 0.06 in
19:04 47.0 °F 44.8 °F 29.22 in East 1.0 mph 3.0 mph 92% 0.06 in
19:09 46.9 °F 44.7 °F 29.21 in East 1.0 mph 4.0 mph 92% 0.06 in
19:14 46.9 °F 44.7 °F 29.22 in East 1.0 mph 4.0 mph 92% 0.07 in
19:19 46.9 °F 44.7 °F 29.21 in Calm   5.0 mph 92% 0.07 in
19:24 46.9 °F 44.7 °F 29.20 in Calm   2.0 mph 92% 0.06 in
19:29 47.0 °F 44.8 °F 29.20 in East 1.0 mph 5.0 mph 92% 0.05 in
19:34 47.0 °F 44.8 °F 29.20 in East 1.0 mph 5.0 mph 92% 0.05 in
19:39 47.0 °F 44.8 °F 29.20 in Calm   2.0 mph 92% 0.05 in
19:44 47.2 °F 45.0 °F 29.19 in Calm   3.0 mph 92% 0.04 in
19:49 47.1 °F 44.9 °F 29.19 in East 1.0 mph 3.0 mph 92% 0.03 in
19:54 47.2 °F 45.0 °F 29.19 in Calm   3.0 mph 92% 0.03 in
19:59 47.3 °F 45.1 °F 29.19 in Calm   3.0 mph 92% 0.02 in
20:04 47.3 °F 45.1 °F 29.18 in Calm   2.0 mph 92% 0.02 in
20:09 47.3 °F 45.1 °F 29.17 in Calm   3.0 mph 92% 0.02 in
20:14 47.3 °F 45.1 °F 29.17 in East 1.0 mph 5.0 mph 92% 0.01 in
20:19 47.3 °F 45.1 °F 29.17 in ESE 2.0 mph 3.0 mph 92% 0.01 in
20:24 47.4 °F 45.2 °F 29.15 in Calm   4.0 mph 92% 0.01 in
20:29 47.4 °F 45.2 °F 29.16 in East 3.0 mph 4.0 mph 92% 0.01 in
20:34 47.4 °F 45.2 °F 29.15 in East 1.0 mph 5.0 mph 92% 0.01 in
20:44 47.5 °F 45.3 °F 29.15 in Calm   1.0 mph 92% 0.00 in
20:49 47.5 °F 45.3 °F 29.14 in Calm     92% 0.00 in
20:54 47.6 °F 45.7 °F 29.14 in Calm     93% 0.00 in
20:59 47.6 °F 45.7 °F 29.14 in Calm     93% 0.01 in
21:04 47.7 °F 45.8 °F 29.14 in Calm     93% 0.01 in
21:09 47.7 °F 45.8 °F 29.14 in Calm     93% 0.02 in
21:14 47.7 °F 45.8 °F 29.13 in Calm     93% 0.02 in
21:19 47.7 °F 45.8 °F 29.13 in Calm     93% 0.03 in
21:24 47.8 °F 45.9 °F 29.12 in Calm     93% 0.03 in
21:29 47.8 °F 45.9 °F 29.12 in Calm     93% 0.03 in
21:34 47.8 °F 45.9 °F 29.12 in Calm     93% 0.04 in
21:39 47.8 °F 45.9 °F 29.12 in Calm     93% 0.05 in
21:44 47.8 °F 45.9 °F 29.09 in Calm     93% 0.06 in
21:49 47.8 °F 45.9 °F 29.10 in Calm   4.0 mph 93% 0.06 in
21:54 47.8 °F 45.9 °F 29.11 in Calm     93% 0.06 in
21:59 47.8 °F 45.9 °F 29.09 in Calm     93% 0.05 in
22:04 47.9 °F 46.0 °F 29.11 in Calm     93% 0.05 in
22:09 47.9 °F 46.0 °F 29.10 in Calm     93% 0.04 in
22:24 47.9 °F 46.0 °F 29.08 in Calm     93% 0.04 in
22:29 47.9 °F 46.0 °F 29.08 in Calm     93% 0.05 in
22:34 47.9 °F 46.0 °F 29.08 in Calm     93% 0.04 in
22:39 48.0 °F 46.1 °F 29.08 in Calm     93% 0.03 in
22:44 47.9 °F 46.0 °F 29.08 in Calm     93% 0.02 in
22:49 47.9 °F 46.0 °F 29.08 in Calm     93% 0.02 in
22:54 47.9 °F 46.0 °F 29.08 in Calm     93% 0.03 in
22:59 47.9 °F 46.0 °F 29.08 in Calm     93% 0.03 in
23:04 47.9 °F 46.0 °F 29.07 in Calm     93% 0.04 in
23:09 47.9 °F 46.0 °F 29.07 in Calm     93% 0.05 in
23:14 47.9 °F 46.0 °F 29.07 in Calm     93% 0.04 in
23:19 47.8 °F 45.9 °F 29.07 in Calm     93% 0.05 in
23:24 47.8 °F 45.9 °F 29.06 in Calm     93% 0.07 in
23:29 47.8 °F 45.9 °F 29.06 in Calm     93% 0.06 in
23:34 47.8 °F 45.9 °F 29.06 in Calm     93% 0.07 in
23:39 47.8 °F 45.9 °F 29.06 in Calm     93% 0.07 in
23:44 47.9 °F 46.0 °F 29.06 in Calm     93% 0.08 in
23:49 47.9 °F 46.0 °F 29.06 in Calm     93% 0.08 in
23:54 47.9 °F 46.0 °F 29.06 in Calm     93% 0.08 in
23:59 47.9 °F 46.0 °F 29.06 in Calm     93% 0.09 in
Buffalo, New York, USA
Compliments of Weather Underground - 2.5 mb